N1OTX Weather Reports


time (UTC)temp
F
wind
direction
speed
knots
gust
knots
rain 1hr
in
rain 24hr
in
rain mn
in
humidity
%
barometer
mb
20260508205528 58 353 0.9 1.7 0.00 0.00 0.00 37 1009.0
20260508205028 58 6 0.9 2.6 0.00 0.00 0.00 37 1009.0
20260508204528 58 330 0.9 3.5 0.00 0.00 0.00 35 1008.9
20260508204027 58 12 1.7 3.5 0.00 0.00 0.00 35 1008.9
20260508203527 58 337 0.9 2.6 0.00 0.00 0.00 35 1008.9
20260508203027 58 6 1.7 6.1 0.00 0.00 0.00 37 1009.0
20260508202527 58 17 1.7 3.5 0.00 0.00 0.00 36 1008.9
20260508202027 59 349 0.9 3.5 0.00 0.00 0.00 36 1008.9
20260508201527 60 23 1.7 6.1 0.00 0.00 0.00 33 1008.9
20260508201027 60 37 1.7 5.2 0.00 0.00 0.00 36 1008.9
20260508200527 60 39 1.7 5.2 0.00 0.00 0.00 35 1008.7
20260508200027 60 6 2.6 5.2 0.00 0.00 0.00 35 1008.8
20260508195527 60 3 1.7 5.2 0.00 0.00 0.00 35 1008.7
20260508195028 59 16 1.7 3.5 0.00 0.00 0.00 36 1008.6
20260508194528 60 354 1.7 3.5 0.00 0.00 0.00 34 1008.6
20260508194030 60 28 1.7 3.5 0.00 0.00 0.00 34 1008.5
20260508193548 59 350 1.7 5.2 0.00 0.00 0.00 35 1008.6
20260508193028 59 5 0.9 2.6 0.00 0.00 0.00 34 1008.6
20260508192528 58 302 1.7 5.2 0.00 0.00 0.00 34 1008.6
20260508192028 59 332 1.7 3.5 0.00 0.00 0.00 32 1008.7
20260508191528 59 326 1.7 6.1 0.00 0.00 0.00 34 1008.6
20260508191027 60 355 2.6 7.0 0.00 0.00 0.00 31 1008.6
20260508190527 59 18 1.7 6.1 0.00 0.00 0.00 33 1008.5
20260508190027 59 4 1.7 5.2 0.00 0.00 0.00 32 1008.6
20260508185528 59 30 1.7 5.2 0.00 0.00 0.00 33 1008.7
20260508185028 59 4 0.9 7.8 0.00 0.00 0.00 32 1008.6
20260508184528 59 59 1.7 7.8 0.00 0.00 0.00 31 1008.6
20260508184027 60 21 1.7 5.2 0.00 0.00 0.00 33 1008.7
20260508183527 60 320 1.7 7.8 0.00 0.00 0.00 32 1008.7
20260508183027 60 214 1.7 7.8 0.00 0.00 0.00 33 1008.7
20260508182547 60 347 1.7 5.2 0.00 0.00 0.00 33 1008.7
20260508182027 60 258 1.7 3.5 0.00 0.00 0.00 35 1008.7
20260508181527 59 30 1.7 5.2 0.00 0.00 0.00 36 1008.7
20260508181027 59 5 1.7 6.1 0.00 0.00 0.00 35 1008.7
20260508180529 59 275 1.7 8.7 0.00 0.00 0.00 35 1008.7
20260508180028 59 2 2.6 7.8 0.00 0.00 0.00 34 1008.7
20260508175528 58 35 1.7 3.5 0.00 0.00 0.00 35 1008.6
20260508175028 58 1 1.7 7.0 0.00 0.00 0.00 35 1008.7
20260508174528 59 15 1.7 6.1 0.00 0.00 0.00 35 1008.7
20260508174028 59 354 1.7 6.1 0.00 0.00 0.00 34 1008.8
20260508173528 59 317 1.7 7.8 0.00 0.00 0.00 35 1008.8
20260508173048 60 39 1.7 5.2 0.00 0.00 0.00 34 1008.8
20260508172529 61 350 1.7 3.5 0.00 0.00 0.00 34 1008.8
20260508172048 61 251 1.7 5.2 0.00 0.00 0.00 35 1008.7
20260508171528 60 38 1.7 5.2 0.00 0.00 0.00 35 1008.8
20260508171048 60 359 2.6 5.2 0.00 0.00 0.00 35 1008.7
20260508170528 59 34 1.7 5.2 0.00 0.00 0.00 37 1008.7
20260508170028 59 7 1.7 6.1 0.00 0.00 0.00 35 1008.7
20260508165527 59 15 2.6 6.1 0.00 0.00 0.00 36 1008.7
20260508165032 59 140 1.7 6.1 0.00 0.00 0.00 34 1008.6
20260508164526 59 68 1.7 6.1 0.00 0.00 0.00 35 1008.6
20260508164027 60 25 0.9 3.5 0.00 0.00 0.00 35 1008.7
20260508163608 61 6 1.7 3.5 0.00 0.00 0.00 34 1008.7
20260508163029 61 10 1.7 5.2 0.00 0.00 0.00 36 1008.7
20260508162529 60 6 1.7 6.1 0.00 0.00 0.00 35 1008.6
20260508162028 60 340 1.7 6.1 0.00 0.00 0.00 34 1008.7
20260508161628 60 356 1.7 5.2 0.00 0.00 0.00 33 1008.8
20260508161028 61 28 1.7 5.2 0.00 0.00 0.00 35 1008.7
20260508160528 61 16 1.7 3.5 0.00 0.00 0.00 35 1008.8
20260508160028 60 291 0.9 5.2 0.00 0.00 0.00 36 1009.0
20260508155528 59 191 1.7 6.1 0.00 0.00 0.00 36 1009.0
20260508155028 58 163 0.9 8.7 0.00 0.00 0.00 36 1009.1
20260508154527 58 342 0.9 2.6 0.00 0.00 0.00 36 1009.1
20260508154027 58 239 0.9 5.2 0.00 0.00 0.00 37 1009.2
20260508153527 57 21 1.7 3.5 0.00 0.00 0.00 37 1009.3
20260508153047 58 358 1.7 3.5 0.00 0.00 0.00 35 1009.2
20260508152527 59 35 1.7 5.2 0.00 0.00 0.00 36 1009.2
20260508152026 58 255 1.7 7.0 0.00 0.00 0.00 37 1009.2
20260508151528 58 39 1.7 3.5 0.00 0.00 0.00 36 1009.2
20260508151028 58 1 1.7 8.7 0.00 0.00 0.00 37 1009.3
20260508150528 58 16 0.9 5.2 0.00 0.00 0.00 37 1009.3
20260508150028 57 6 1.7 5.2 0.00 0.00 0.00 38 1009.4
20260508145528 57 11 2.6 6.1 0.00 0.00 0.00 35 1009.5
20260508145028 57 11 1.7 3.5 0.00 0.00 0.00 35 1009.4
20260508144527 57 4 1.7 3.5 0.00 0.00 0.00 36 1009.5
20260508144027 58 17 1.7 5.2 0.00 0.00 0.00 35 1009.3
20260508143547 58 341 1.7 5.2 0.00 0.00 0.00 37 1009.4
20260508143029 58 315 1.7 6.1 0.00 0.00 0.00 37 1009.5
20260508142527 58 245 0.9 6.1 0.00 0.00 0.00 38 1009.5
20260508142027 57 349 1.7 6.1 0.00 0.00 0.00 35 1009.5
20260508141529 57 346 1.7 7.0 0.00 0.00 0.00 37 1009.6
20260508141029 56 19 1.7 3.5 0.00 0.00 0.00 36 1009.5
20260508140529 56 348 1.7 6.1 0.00 0.00 0.00 37 1009.6
20260508140029 55 12 2.6 6.1 0.00 0.00 0.00 36 1009.7
20260508135528 56 350 1.7 5.2 0.00 0.00 0.00 36 1009.8
20260508135028 56 352 1.7 5.2 0.00 0.00 0.00 37 1009.9
20260508134528 55 341 1.7 5.2 0.00 0.00 0.00 39 1010.0
20260508134048 55 5 2.6 7.0 0.00 0.00 0.00 38 1009.9
20260508133528 55 30 1.7 7.0 0.00 0.00 0.00 37 1010.0
20260508133027 55 303 1.7 3.5 0.00 0.00 0.00 40 1010.0
20260508132528 55 22 1.7 3.5 0.00 0.00 0.00 39 1010.1
20260508132027 55 333 0.9 2.6 0.00 0.00 0.00 41 1010.0
20260508131527 55 44 0.9 7.0 0.00 0.00 0.00 40 1010.2
20260508131108 54 323 0.9 3.5 0.00 0.00 0.00 41 1010.1
20260508130527 54 16 0.9 2.6 0.00 0.00 0.00 44 1010.1
20260508130029 54 33 0.9 3.5 0.00 0.00 0.00 41 1010.1
20260508125547 54 0 0.9 3.5 0.00 0.00 0.00 46 1010.1
20260508125027 53 71 0.9 5.2 0.00 0.00 0.00 45 1010.1
20260508124549 53 102 0.9 3.5 0.00 0.00 0.00 45 1010.1
20260508124029 53 13 0.9 3.5 0.00 0.00 0.00 47 1010.2
20260508123528 52 287 0.9 3.5 0.00 0.00 0.00 46 1010.2
20260508123028 52 313 0.9 2.6 0.00 0.00 0.00 47 1010.3
20260508122528 52 337 0.9 3.5 0.00 0.00 0.00 47 1010.3
20260508122028 52 27 0.9 1.7 0.00 0.00 0.00 46 1010.2
20260508121528 52 313 0.9 3.5 0.00 0.00 0.00 47 1010.3
20260508121028 51 313 0.9 3.5 0.00 0.00 0.00 48 1010.1
20260508120527 51 325 0.9 3.5 0.00 0.00 0.00 47 1010.2
20260508120027 51 321 0.9 1.7 0.00 0.00 0.00 47 1010.1
20260508115527 51 13 0.9 2.6 0.00 0.00 0.00 47 1010.2
20260508115027 51 40 0.9 1.7 0.00 0.00 0.00 49 1010.2
20260508114527 50 14 0.9 1.7 0.00 0.00 0.00 49 1010.2
20260508114027 50 29 0.0 1.7 0.00 0.00 0.00 51 1010.2
20260508113529 49 10 0.9 1.7 0.00 0.00 0.00 52 1010.2
20260508113029 49 295 0.0 1.7 0.00 0.00 0.00 54 1010.1
20260508112527 48 25 0.9 1.7 0.00 0.00 0.00 53 1010.2
20260508112027 48 257 0.0 1.7 0.00 0.00 0.00 56 1010.1
20260508111527 47 107 0.0 2.6 0.00 0.00 0.00 59 1010.1
20260508111027 46 185 0.0 0.9 0.00 0.00 0.00 63 1010.2
20260508110529 45 185 0.0 0.9 0.00 0.00 0.00 69 1010.2
20260508110028 43 0.0 0.0 0.00 0.00 0.00 75 1010.1
20260508105527 42 0.0 0.0 0.00 0.00 0.00 82 1009.9
20260508105047 41 186 0.0 0.9 0.00 0.00 0.00 81 1009.9
20260508104529 40 0.0 0.0 0.00 0.00 0.00 81 1009.9
20260508104049 40 0.0 0.0 0.00 0.00 0.00 82 1009.8
20260508103528 39 0.0 0.0 0.00 0.00 0.00 82 1009.8
20260508103048 39 0.0 0.0 0.00 0.00 0.00 82 1009.7
20260508102528 39 0.0 0.0 0.00 0.00 0.00 84 1009.6
20260508102028 39 0.0 0.0 0.00 0.00 0.00 83 1009.7
20260508101528 39 0.0 0.0 0.00 0.00 0.00 82 1009.5
20260508101028 39 0.0 0.0 0.00 0.00 0.00 83 1009.4
20260508100528 39 0.0 0.0 0.00 0.00 0.00 83 1009.4
20260508100028 39 0.0 0.0 0.00 0.00 0.00 82 1009.3
20260508095528 38 0.0 0.0 0.00 0.00 0.00 82 1009.3
20260508095028 38 0.0 0.0 0.00 0.01 0.00 83 1009.3
20260508094528 38 0.0 0.0 0.00 0.01 0.00 82 1009.2
20260508094048 38 0.0 0.0 0.00 0.02 0.00 82 1009.2
20260508093527 38 0.0 0.0 0.00 0.02 0.00 82 1009.2
20260508093048 38 0.0 0.0 0.00 0.02 0.00 83 1009.3
20260508092528 38 0.0 0.0 0.00 0.02 0.00 83 1009.2
20260508092028 37 0.0 0.0 0.00 0.02 0.00 82 1009.2
20260508091528 37 0.0 0.0 0.00 0.04 0.00 82 1009.2
20260508091048 37 0.0 0.0 0.00 0.05 0.00 82 1009.2
20260508090528 37 0.0 0.0 0.00 0.05 0.00 82 1009.2
20260508090048 37 0.0 0.0 0.00 0.06 0.00 83 1009.2
20260508085527 37 0.0 0.0 0.00 0.06 0.00 83 1009.1
20260508085027 37 0.0 0.0 0.00 0.06 0.00 83 1009.1
20260508084527 37 0.0 0.0 0.00 0.07 0.00 84 1009.1
20260508084029 37 0.0 0.0 0.00 0.07 0.00 84 1009.1
20260508083549 37 0.0 0.0 0.00 0.07 0.00 84 1009.1
20260508083049 37 0.0 0.0 0.00 0.07 0.00 83 1009.0
20260508082529 37 0.0 0.0 0.00 0.07 0.00 82 1008.9
20260508082028 37 0.0 0.0 0.00 0.07 0.00 83 1008.8
20260508081528 37 0.0 0.0 0.00 0.07 0.00 84 1008.8
20260508081109 37 0.0 0.0 0.00 0.07 0.00 84 1008.7
20260508080528 37 0.0 0.0 0.00 0.07 0.00 83 1008.6
20260508080028 38 0.0 0.0 0.00 0.07 0.00 81 1008.5
20260508075548 38 0.0 0.0 0.00 0.07 0.00 80 1008.4
20260508075048 38 0.0 0.0 0.00 0.07 0.00 80 1008.4
20260508074528 38 0.0 0.0 0.00 0.08 0.00 80 1008.2
20260508074027 38 0.0 0.0 0.00 0.08 0.00 81 1008.0
20260508073527 38 0.0 0.0 0.00 0.09 0.00 81 1007.9
20260508073027 38 0.0 0.0 0.00 0.09 0.00 80 1007.8
20260508072527 38 0.0 0.0 0.00 0.09 0.00 79 1007.8
20260508072027 39 0.0 0.0 0.00 0.09 0.00 78 1007.7
20260508071529 39 0.0 0.0 0.00 0.09 0.00 77 1007.7
20260508071028 39 0.0 0.0 0.00 0.09 0.00 76 1007.7
20260508070529 39 0.0 0.0 0.00 0.09 0.00 75 1007.7
20260508070028 40 0.0 0.0 0.00 0.09 0.00 75 1007.7
20260508065526 40 0.0 0.0 0.00 0.09 0.00 75 1007.7
20260508065028 40 0.0 0.0 0.00 0.09 0.00 75 1007.8
20260508064528 40 0.0 0.0 0.00 0.09 0.00 74 1007.8
20260508064028 41 0.0 0.0 0.00 0.09 0.00 73 1007.7
20260508063527 41 0.0 0.0 0.00 0.09 0.00 73 1007.7
20260508063028 41 0.0 0.0 0.00 0.09 0.00 73 1007.7
20260508062528 41 0.0 0.0 0.00 0.09 0.00 74 1007.7
20260508062027 41 0.0 0.0 0.00 0.09 0.00 71 1007.7
20260508061527 42 0.0 0.0 0.00 0.09 0.00 70 1007.7
20260508061027 42 0.0 0.0 0.00 0.09 0.00 70 1007.8
20260508060527 42 0.0 0.0 0.00 0.09 0.00 68 1007.9
20260508060027 42 0.0 0.0 0.00 0.09 0.00 69 1007.8
20260508055526 42 187 0.0 0.9 0.00 0.09 0.00 67 1007.9
20260508055026 42 0.0 0.0 0.00 0.09 0.00 67 1008.0
20260508054526 43 0.0 0.0 0.00 0.09 0.00 68 1007.9
20260508054028 43 0.0 0.0 0.00 0.09 0.00 66 1008.0
20260508053528 43 0.0 0.0 0.00 0.09 0.00 66 1007.9
20260508053028 43 0.0 0.0 0.00 0.09 0.00 66 1007.9
20260508052528 43 0.0 0.0 0.00 0.09 0.00 65 1008.0
20260508052028 43 0.0 0.0 0.00 0.09 0.00 67 1008.1
20260508051528 43 0.0 0.0 0.00 0.09 0.00 65 1008.0
20260508051027 43 0.0 0.0 0.00 0.09 0.00 64 1008.2
20260508050527 44 0.0 0.0 0.00 0.09 0.00 64 1008.3
20260508050027 44 0.0 0.0 0.00 0.09 0.00 66 1008.3
20260508045527 44 0.0 0.0 0.00 0.09 0.00 63 1008.2
20260508045027 44 0.0 0.0 0.00 0.09 0.00 62 1008.2
20260508044527 44 0.0 0.0 0.00 0.09 0.00 63 1008.3
20260508044147 44 0.0 0.0 0.00 0.09 0.00 62 1008.3
20260508043526 44 0.0 0.0 0.00 0.09 0.00 63 1008.2
20260508043046 44 0.0 0.0 0.00 0.09 0.00 62 1008.2
20260508042526 44 0.0 0.9 0.00 0.09 0.00 64 1008.3
20260508042048 45 187 0.0 0.9 0.00 0.09 0.00 62 1008.2
20260508041608 45 0.0 0.0 0.00 0.09 0.00 61 1008.2
20260508041028 45 0.0 0.0 0.00 0.09 0.00 61 1008.2
20260508040528 45 0.0 0.0 0.00 0.10 0.00 63 1008.3
20260508040028 45 192 0.0 0.9 0.00 0.10 0.00 61 1008.3
20260508035548 45 190 0.0 0.9 0.00 0.10 0.10 62 1008.3
20260508035027 45 0.0 0.9 0.00 0.10 0.10 62 1008.2
20260508034527 45 202 0.0 2.6 0.00 0.10 0.10 62 1008.2
20260508034027 45 227 0.0 2.6 0.00 0.10 0.10 62 1008.2
20260508033527 46 0.0 0.0 0.00 0.10 0.10 63 1008.1
20260508033047 46 0.0 0.0 0.00 0.10 0.10 62 1008.1
20260508032526 46 0.0 0.0 0.00 0.10 0.10 62 1008.3
20260508032026 46 225 0.0 0.9 0.00 0.10 0.10 61 1008.2
20260508031546 46 0.0 0.9 0.00 0.10 0.10 61 1008.3
20260508031028 46 224 0.0 0.9 0.00 0.10 0.10 62 1008.2
20260508030528 46 219 0.0 0.9 0.00 0.10 0.10 62 1008.2
20260508030028 46 0.0 0.0 0.00 0.10 0.10 62 1008.2
20260508025528 46 221 0.0 1.7 0.00 0.10 0.10 61 1008.2
20260508025028 46 0.0 0.0 0.00 0.10 0.10 64 1008.3
20260508024548 46 0.0 0.0 0.00 0.10 0.10 64 1008.1
20260508024027 46 0.0 0.0 0.00 0.10 0.10 62 1008.2
20260508023527 47 0.0 0.0 0.00 0.10 0.10 60 1008.2
20260508023029 47 0.0 0.0 0.00 0.10 0.10 61 1008.2
20260508022529 47 0.0 0.0 0.00 0.10 0.10 61 1008.2
20260508022029 47 0.0 0.0 0.00 0.10 0.10 61 1008.1
20260508021528 47 0.0 0.9 0.00 0.10 0.10 61 1008.1
20260508021028 48 231 0.0 1.7 0.00 0.10 0.10 61 1008.2
20260508020529 48 0.0 0.0 0.00 0.10 0.10 60 1008.3
20260508020028 48 0.0 0.0 0.00 0.10 0.10 59 1008.3
20260508015528 48 0.0 0.0 0.00 0.10 0.10 58 1008.2
20260508015109 48 0.0 0.0 0.00 0.10 0.10 59 1008.2
20260508014528 49 0.0 0.0 0.00 0.10 0.10 57 1008.1
20260508014028 49 0.0 0.0 0.00 0.10 0.10 54 1007.9
20260508013528 49 0.0 0.0 0.00 0.10 0.10 56 1007.9
20260508013028 50 0.0 0.0 0.00 0.10 0.10 55 1007.9
20260508012527 50 0.0 0.0 0.00 0.10 0.10 51 1007.8
20260508012027 50 242 0.0 0.9 0.00 0.10 0.10 50 1007.8
20260508011527 51 0.0 0.0 0.00 0.10 0.10 48 1007.7
20260508011029 51 0.0 0.0 0.00 0.10 0.10 50 1007.6
20260508010529 51 226 0.0 1.7 0.00 0.10 0.10 48 1007.5
20260508010029 51 83 0.0 0.9 0.00 0.10 0.10 48 1007.5
20260508005528 52 0.0 0.9 0.00 0.10 0.10 48 1007.4
20260508005028 52 79 0.0 0.9 0.00 0.10 0.10 48 1007.2
20260508004549 52 78 0.0 0.9 0.00 0.10 0.10 46 1007.1
20260508004028 53 73 0.0 0.9 0.00 0.10 0.10 44 1007.0
20260508003528 53 56 0.0 1.7 0.00 0.10 0.10 46 1007.0
20260508003028 53 0.0 0.0 0.00 0.10 0.10 44 1006.9
20260508002549 53 36 0.0 0.9 0.00 0.10 0.10 43 1006.9
20260508002028 53 0.0 0.0 0.00 0.10 0.10 45 1006.8
20260508001528 54 42 0.0 0.9 0.00 0.10 0.10 43 1006.7
20260508001048 54 42 0.0 0.9 0.00 0.10 0.10 42 1006.7
20260508000528 55 43 0.0 0.9 0.00 0.10 0.10 44 1006.7
20260508000028 55 43 0.0 0.9 0.00 0.10 0.10 40 1006.7
20260507235609 56 47 0.0 0.9 0.00 0.10 0.10 40 1006.6
20260507235028 56 47 0.0 0.9 0.00 0.10 0.10 39 1006.5
20260507234527 56 3 0.0 2.6 0.00 0.10 0.10 39 1006.4
20260507234028 57 357 0.0 1.7 0.00 0.10 0.10 38 1006.4
20260507233527 57 40 0.9 1.7 0.00 0.10 0.10 36 1006.4
20260507233047 57 50 0.9 1.7 0.00 0.10 0.10 36 1006.3
20260507232529 57 326 0.9 1.7 0.00 0.11 0.10 37 1006.3
20260507232029 58 20 0.9 1.7 0.00 0.11 0.10 35 1006.2
20260507231529 58 8 0.0 1.7 0.00 0.12 0.10 36 1006.2
20260507231028 58 4 0.9 2.6 0.00 0.12 0.10 34 1006.1
20260507230529 59 33 0.0 1.7 0.00 0.13 0.10 34 1006.1
20260507230028 59 28 0.9 6.1 0.00 0.13 0.10 32 1006.1
20260507225528 59 19 1.7 5.2 0.00 0.13 0.10 33 1006.0
20260507225048 59 333 1.7 2.6 0.00 0.13 0.10 32 1006.0
20260507224528 59 12 0.9 5.2 0.00 0.13 0.10 33 1006.0
20260507224028 60 31 0.9 3.5 0.00 0.13 0.10 34 1005.8
20260507223527 60 5 0.9 3.5 0.00 0.13 0.10 33 1005.8
20260507223027 60 358 0.9 1.7 0.00 0.13 0.10 33 1005.8
20260507222607 60 60 0.9 2.6 0.00 0.13 0.10 31 1005.7
20260507222027 60 51 0.9 2.6 0.00 0.13 0.10 32 1005.8
20260507221527 60 13 1.7 5.2 0.00 0.13 0.10 31 1005.7
20260507221029 60 336 0.9 2.6 0.00 0.13 0.10 31 1005.5
20260507220549 60 7 1.7 6.1 0.00 0.13 0.10 31 1005.5
20260507220029 60 358 1.7 5.2 0.00 0.13 0.10 31 1005.7
20260507215528 60 359 1.7 7.8 0.00 0.13 0.10 31 1005.5
20260507215029 61 3 1.7 5.2 0.00 0.13 0.10 31 1005.5
20260507214528 61 10 0.9 3.5 0.00 0.14 0.10 31 1005.5
20260507214028 61 14 1.7 3.5 0.00 0.14 0.10 31 1005.3
20260507213528 61 15 1.7 6.1 0.00 0.14 0.10 30 1005.4
20260507213028 61 11 1.7 5.2 0.00 0.14 0.10 30 1005.3
20260507212528 62 348 1.7 3.5 0.00 0.14 0.10 30 1005.2
20260507212028 62 334 0.9 6.1 0.00 0.14 0.10 33 1005.3
20260507211527 62 13 1.7 3.5 0.00 0.14 0.10 30 1005.2
20260507211027 62 15 2.6 5.2 0.00 0.14 0.10 30 1005.3
20260507210527 62 326 0.9 6.1 0.00 0.14 0.10 30 1005.1
20260507210108 62 7 1.7 6.1 0.00 0.14 0.10 30 1005.3